User: anonymous   Login
Location: Neuvy Saint Sepulchre
(46.5953°N, 1.8122°E)
Time: 01:19:43
(UTC+01:00)
Language:

ISS - Orbit

View from above orbital plane
View from above orbital plane
View from above satellite
View from above satellite

Ground track
Ground track

The orbit data is extracted from the following two-line orbital elements,

1 25544U 98067A   23344.55172951  .00010228  00000-0  18492-3 0  9991
2 25544  51.6394 174.9779 0001350  22.4129  73.1463 15.50313898429140
Epoch (UTC): 10 December 2023 13:14:29
Eccentricity: 0.0001350
inclination: 51.6394°
perigee height: 415 km
apogee height: 417 km
right ascension of ascending node: 174.9779°
argument of perigee: 22.4129°
revolutions per day: 15.50313898
mean anomaly at epoch: 73.1463°
orbit number at epoch: 42914

The dashed part of the orbit path shows where the satellite is in the earth's shadow,  

DLR